TimeAST,TemperatureF,Dew PointF,Humidity,Sea Level PressureIn,VisibilityMPH,Wind Direction,Wind SpeedMPH,Gust SpeedMPH,PrecipitationIn,Events,Conditions,WindDirDegrees,DateUTC
12:00 AM,-9999,-9999,N/A,0.30,-9999.0,WSW,3.5,-,N/A,,Clear,240,2010-09-03 21:00:00
1:00 AM,93.2,78.8,63,29.53,-9999.0,Calm,Calm,-,N/A,,Clear,0,2010-09-03 22:00:00
2:00 AM,93.2,78.8,63,29.50,-9999.0,SW,3.5,-,N/A,,Clear,230,2010-09-03 23:00:00
2:08 AM,93.2,78.8,63,29.50,-9999.0,SW,3.5,-,N/A,,Clear,230,2010-09-03 23:08:00
3:00 AM,92,76,51,29.51,6,SW,4.6,,,,,230,2010-09-04 00:00:00
3:00 AM,93.2,75.2,56,29.50,-9999.0,SW,4.6,-,N/A,,Clear,230,2010-09-04 00:00:00
4:00 AM,93.2,73.4,52,28.32,-9999.0,WSW,4.6,-,N/A,,Clear,250,2010-09-04 01:00:00
5:00 AM,93.2,69.8,46,29.50,-9999.0,WSW,5.8,-,N/A,,Clear,250,2010-09-04 02:00:00
6:00 AM,95.0,62.6,34,29.53,4.3,NW,11.5,-,N/A,,Unknown,310,2010-09-04 03:00:00
7:00 AM,95.0,66.2,39,29.53,5.0,NW,11.5,-,N/A,,Unknown,320,2010-09-04 04:00:00
8:00 AM,100.4,66.2,33,29.53,-9999.0,NW,9.2,-,N/A,,Clear,310,2010-09-04 05:00:00
9:00 AM,103,61,16,29.55,6,NW,11.5,,,,Scattered Clouds,310,2010-09-04 06:00:00
9:00 AM,104.0,60.8,24,29.53,-9999.0,NW,11.5,-,N/A,,Clear,310,2010-09-04 06:00:00
10:00 AM,107.6,64.4,25,29.53,-9999.0,NW,9.2,-,N/A,,Clear,310,2010-09-04 07:00:00
11:00 AM,109.4,57.2,18,29.53,-9999.0,NNW,9.2,-,N/A,,Clear,330,2010-09-04 08:00:00
12:00 PM,105.8,69.8,31,29.50,-9999.0,NNE,10.4,-,N/A,,Clear,20,2010-09-04 09:00:00
1:00 PM,105.8,75.2,38,29.47,5.0,NE,13.8,-,N/A,,Unknown,40,2010-09-04 10:00:00
2:00 PM,102.2,82.4,53,29.47,5.0,NE,12.7,-,N/A,,Unknown,40,2010-09-04 11:00:00
3:00 PM,101,83,50,29.49,4,,10.4,,,,Widespread Dust,,2010-09-04 12:00:00
3:00 PM,100.4,84.2,60,29.47,4.3,East,10.4,-,N/A,,Unknown,90,2010-09-04 12:00:00
4:00 PM,98.6,84.2,63,29.47,4.3,ESE,8.1,-,N/A,,Unknown,110,2010-09-04 13:00:00
5:00 PM,96.8,84.2,67,29.50,4.3,East,5.8,-,N/A,,Unknown,90,2010-09-04 14:00:00
6:00 PM,96.8,82.4,63,29.50,3.7,ENE,4.6,-,N/A,,Unknown,60,2010-09-04 15:00:00
7:00 PM,95.0,82.4,67,29.50,4.3,NNE,3.5,-,N/A,,Unknown,30,2010-09-04 16:00:00
8:00 PM,95.0,82.4,67,29.50,5.0,Calm,Calm,-,N/A,,Unknown,0,2010-09-04 17:00:00
9:00 PM,94,85,69,29.55,5,NNE,6.9,,,,Haze,20,2010-09-04 18:00:00
9:00 PM,93.2,84.2,75,29.53,5.0,NNE,6.9,-,N/A,,Unknown,20,2010-09-04 18:00:00
10:00 PM,93.2,86.0,79,29.53,5.0,NNE,4.6,-,N/A,,Unknown,20,2010-09-04 19:00:00
11:00 PM,93.2,87.8,84,29.53,3.7,North,6.9,-,N/A,,Partly Cloudy,10,2010-09-04 20:00:00